TimeMDT,TemperatureF,Dew PointF,Humidity,Sea Level PressureIn,VisibilityMPH,Wind Direction,Wind SpeedMPH,Gust SpeedMPH,PrecipitationIn,Events,Conditions,WindDirDegrees,DateUTC
12:53 AM,57.0,37.9,49,29.81,10.0,SSW,13.8,-,N/A,,Clear,200,2013-04-26 06:53:00
1:53 AM,54.0,39.0,57,29.83,10.0,NW,3.5,-,N/A,,Partly Cloudy,310,2013-04-26 07:53:00
2:53 AM,52.0,37.9,59,29.80,10.0,WSW,5.8,-,N/A,,Scattered Clouds,240,2013-04-26 08:53:00
3:53 AM,50.0,37.9,63,29.80,10.0,Calm,Calm,-,N/A,,Clear,0,2013-04-26 09:53:00
4:53 AM,51.1,39.0,63,29.80,10.0,North,11.5,-,N/A,,Overcast,350,2013-04-26 10:53:00
5:53 AM,52.0,37.9,59,29.81,10.0,North,10.4,-,N/A,,Overcast,360,2013-04-26 11:53:00
6:53 AM,52.0,37.9,59,29.86,10.0,North,11.5,23.0,N/A,,Overcast,360,2013-04-26 12:53:00
7:53 AM,53.1,37.9,57,29.91,10.0,NW,5.8,-,0.00,,Overcast,320,2013-04-26 13:53:00
8:53 AM,54.0,36.0,51,29.94,10.0,SSW,4.6,-,N/A,,Overcast,210,2013-04-26 14:53:00
9:53 AM,61.0,27.0,27,29.95,10.0,Calm,Calm,-,N/A,,Overcast,0,2013-04-26 15:53:00
10:53 AM,-9999,-9999,N/A,30.09,10.0,Calm,Calm,-,N/A,,Scattered Clouds,0,2013-04-26 16:53:00
11:53 AM,68.0,27.0,21,29.97,10.0,ENE,9.2,-,N/A,,Mostly Cloudy,70,2013-04-26 17:53:00
12:53 PM,69.1,26.1,20,29.95,10.0,Calm,Calm,-,N/A,,Scattered Clouds,0,2013-04-26 18:53:00
1:53 PM,73.9,14.0,10,29.94,10.0,NNE,21.9,31.1,N/A,,Partly Cloudy,20,2013-04-26 19:53:00
2:53 PM,75.0,12.9,9,29.94,10.0,NNE,15.0,28.8,N/A,,Clear,20,2013-04-26 20:53:00
3:53 PM,73.9,12.0,9,29.95,10.0,NE,12.7,25.3,N/A,,Clear,40,2013-04-26 21:53:00
4:53 PM,72.0,12.0,10,29.96,10.0,NNE,13.8,26.5,N/A,,Clear,20,2013-04-26 22:53:00
5:53 PM,73.0,12.0,10,29.97,10.0,NNE,16.1,-,N/A,,Partly Cloudy,20,2013-04-26 23:53:00
6:53 PM,68.0,12.0,11,30.01,10.0,NE,12.7,-,N/A,,Clear,40,2013-04-27 00:53:00
7:53 PM,63.0,28.9,28,30.04,10.0,ESE,6.9,-,N/A,,Clear,120,2013-04-27 01:53:00
8:53 PM,57.9,33.1,39,30.08,10.0,South,5.8,-,N/A,,Clear,170,2013-04-27 02:53:00
9:53 PM,55.0,33.1,43,30.09,10.0,Calm,Calm,-,N/A,,Clear,0,2013-04-27 03:53:00
10:53 PM,54.0,33.1,45,30.19,10.0,SSW,6.9,-,N/A,,Clear,210,2013-04-27 04:53:00
11:53 PM,52.0,32.0,47,30.10,10.0,WNW,5.8,-,N/A,,Clear,300,2013-04-27 05:53:00